www.pogodaiklimat.ru

АРХИВ ПОГОДЫ в Тюмени

Время (UTC), дата Ветер
(напр.,м/с)
 
Видим.   Явления Облачность Т
(С)
Тd
(С)
f
(%)
Тe
(С)
Тes
(С)
Комфортность P
(гПа)
Po
(гПа)
Тmin
(С)
Tmax
(С)
R
(мм)
S
(см)
21 22.06 штиль 0 50 км 3/0
[Ci fib]
+14.2 +13.3 94 +14 +14 по сезону 1015.8 1003.7
00 23.06 З 1 4000 м 4/0
[Ac trans Ci fib]
+13.2 +12.5 96 +13 +14 по сезону 1015.1 1002.9
03 23.06 штиль 0 4000 м 3/0
[Ac lent]
+21.2 +15.5 70 +24 +30 комфорт 1014.5 1002.7 +12.3
06 23.06 З 1 4000 м 4/4 600 м
[Cu med, cong]
+25.0 +14.7 53 +28 +37 жарко 1013.7 1002.0
09 23.06 В 2 4000 м 8/8 600 м
[Cu med, cong]
+26.6 +13.6 45 +29 +31 жарко 1012.3 1000.7
12 23.06 ЮЗ 1 4000 м 8/8 600 м
[Cu med, cong]
+26.2 +12.6 43 +28 +29 жарко 1010.8 999.2
15 23.06 В 2 4000 м 4/1 600 м
[Cu med, cong Ci fib]
+26.9 +11.5 38 +28 +28 жарко 1009.7 998.1 +28.4
18 23.06 штиль 0 50 км 3/0
[Ci fib]
+19.4 +15.1 76 +21 +21 комфорт 1009.4 997.6
21 23.06 штиль 0 50 км 4/0
[Ac trans]
+15.8 +13.3 85 +16 +16 по сезону 1008.2 996.2
00 24.06 ЮВ 1 4000 м 9/9 600 м
[Sc]
+15.6 +13.1 85 +16 +16 тепло 1007.1 995.1
03 24.06 Ю 2 4000 м 9/8 600 м
[Sc Ci fib]
+20.2 +14.6 70 +23 +24 комфорт 1006.2 994.4 +14.3
06 24.06 ЮЗ 3 4000 м 10/4 600 м
[Cb calv Ac inh]
+22.7 +16.1 66 +27 +29 душно 1006.4 994.6
09 24.06 ЮЗ 2 4000 м слабый ливневой дождь 10/8 600 м
[Cb calv Ac inh]
+21.7 +18.2 80 +26 +27 душно 1006.5 994.7
12 24.06 Ю 1 4000 м в посл. час гроза {ливн. осадки} 10/6 600 м
[Cb calv Ac inh]
+18.7 +16.9 89 +21 +22 комфорт 1006.5 994.6
15 24.06 С 1 4000 м слабый ливневой дождь, в посл. час гроза 10/10 600 м
[Cb cap]
+17.6 +15.6 88 +19 +19 по сезону 1007.0 995.1 +23.2 3
18 24.06 С 3 50 км {гроза, ливн. осадки} 9/9 600 м
[Cb cap]
+17.4 +15.5 89 +17 +17 по сезону 1008.2 996.3
21 24.06 СЗ 2 50 км 8/0
[Ac trans]
+16.0 +12.9 82 +16 +16 по сезону 1009.3 997.3
00 25.06 С 2 4000 м 4/0
[Ac trans Ci fib]
+12.2 +9.3 82 +11 +12 прохладно 1010.3 998.1
03 25.06 СЗ 3 4000 м 9/9 600 м
[Sc]
+13.8 +8.0 68 +13 +13 прохладно 1010.9 998.7 +11.9 0.0
06 25.06 СЗ 4 4000 м 9/4 600 м
[Sc Ac trans]
+15.6 +8.8 64 +15 +18 холодно 1011.1 999.0
09 25.06 С 3 4000 м 8/5 600 м
[Cb calv Ac trans Ci fib]
+17.2 +8.2 55 +17 +21 холодно 1010.8 998.8
12 25.06 С 3 4000 м 6/4 600 м
[Cu med, cong Ac trans Ci fib]
+19.3 +7.8 47 +20 +23 прохладно 1010.6 998.7
15 25.06 С 3
{10}
4000 м 6/4 600 м
[Cb calv Ac trans Ci fib]
+18.4 +7.8 50 +19 +19 по сезону 1010.7 998.8 +19.9
18 25.06 СЗ 2 50 км 6/0
[Ac cast]
+13.2 +7.7 69 +13 +13 прохладно 1011.0 998.8
21 25.06 СЗ 2 50 км 8/0
[Ac trans]
+12.2 +7.3 72 +11 +11 прохладно 1010.4 998.2
00 26.06 СЗ 2 4000 м 8/0
[Ac trans]
+11.2 +7.4 77 +10 +10 прохладно 1010.3 998.1
03 26.06 СЗ 3 4000 м 9/0
[Ac trans]
+14.2 +8.2 67 +13 +16 прохладно 1009.9 997.8 +10.7
06 26.06 С 3
{10}
4000 м 9/3 600 м
[Cu med, cong Ac trans Ci fib]
+16.8 +4.8 45 +17 +21 прохладно 1009.4 997.4
09 26.06 С 3
{11}
4000 м 9/8 600 м
[Cb calv Ac trans]
+17.9 +5.3 43 +18 +20 прохладно 1009.2 997.2
12 26.06 СЗ 4
{11}
4000 м 9/9 600 м
[Cb calv]
+19.5 +7.8 47 +20 +21 прохладно 1008.5 996.6
15 26.06 СЗ 2 4000 м 8/3 600 м
[Cu hum Ac trans Ci fib]
+18.0 +6.1 46 +19 +19 по сезону 1007.5 995.5 +20.1
18 26.06 З 1 50 км 1/1 300 м
[Sc]
+12.0 +8.0 76 +12 +12 холодно 1007.3 995.1
21 26.06 СЗ 1 50 км 8/1 300 м
[Sc Ci fib]
+10.2 +7.6 84 +10 +10 холодно 1005.8 993.6
00 27.06 СЗ 1 4000 м 9/1 600 м
[Sc Ci fib]
+8.9 +6.1 83 +8 +9 холодно 1004.5 992.3
03 27.06 СЗ 2 4000 м 9/3 600 м
[Sc Ci fib]
+12.6 +7.2 70 +12 +15 холодно 1003.1 991.1 +8.8
06 27.06 З 3 4000 м 10/0
[As trans]
+16.1 +6.8 54 +16 +20 холодно 1001.7 989.8
09 27.06 СЗ 4 4000 м 10/1 600 м
[Cu hum Cs]
+18.9 +5.9 43 +19 +26 прохладно 1000.1 988.3
12 27.06 З 3 4000 м 10/1
[Cb calv Ci sp]
+21.8 +7.3 39 +23 +27 комфорт 998.7 987.0
15 27.06 Ю 2 4000 м 10/0
[Ac trans Ci sp]
+20.0 +9.9 52 +22 +22 комфорт 997.1 985.4 +22.0
18 27.06 Ю 2 50 км 9/8 600 м
[Cb calv Ci sp]
+17.0 +9.5 61 +17 +17 по сезону 996.5 984.6
21 27.06 Ю 1 50 км 9/9 600 м
[Sc]
+14.0 +9.0 72 +14 +14 по сезону 994.8 982.9
00 28.06 ЮВ 2 4000 м 9/8 600 м
[Cb calv Ac und]
+14.2 +10.4 78 +14 +14 по сезону 993.6 981.7
03 28.06 Ю 2 4000 м 9/0
[Ac trans]
+16.2 +12.4 78 +16 +19 по сезону 993.1 981.3 +13.9
06 28.06 ЮВ 3 4000 м 9/3 600 м
[Cu med, cong Ac cast]
+19.2 +13.0 67 +21 +24 комфорт 992.5 980.8
09 28.06 Ю 4 4000 м в посл. час ливневой дождь 10/8 600 м
[Cb cap Ac As]
+19.8 +12.3 62 +21 +22 комфорт 992.6 980.8
12 28.06 З 2 4000 м слабый ливневой дождь 9/9 600 м
[Cb cap]
+17.2 +15.0 87 +18 +18 холодно 993.4 981.6
15 28.06 З 1 4000 м {ливн. осадки} 9/4 600 м
[Cb calv Ac As]
+18.9 +13.0 69 +21 +21 комфорт 993.7 982.0 +21.8 7
18 28.06 ЮЗ 1 50 км {ливн. осадки} 8/3 600 м
[Cb calv Ac trans]
+14.8 +13.7 93 +15 +15 по сезону 994.1 982.2
21 28.06 ЮЗ 1 50 км 6/0
[Ac trans]
+12.6 +11.9 95 +13 +13 прохладно 994.2 982.2
00 29.06 З 1 4000 м 6/0
[Ac trans Ci fib]
+11.4 +11.0 97 +11 +11 прохладно 994.7 982.6
03 29.06 СЗ 1 4000 м 8/0
[Ac trans]
+13.4 +11.8 90 +14 +17 прохладно 995.2 983.2 +11.0
06 29.06 З 3 4000 м 8/4 600 м
[Cu hum Ac trans Ci fib]
+18.1 +12.7 71 +18 +23 прохладно 995.6 983.9
09 29.06 СЗ 4 4000 м {ливн. осадки} 9/6 600 м
[Cu med, cong Ci fib]
+18.5 +13.2 71 +19 +22 прохладно 996.5 984.7
12 29.06 З 4 4000 м {ливн. осадки} 9/6 600 м
[Cb calv Ac trans Ci fib]
+20.9 +14.2 66 +24 +25 комфорт 997.2 985.5
15 29.06 СЗ 3 4000 м слабый ливневой дождь {гроза} 9/8 600 м
[Cb calv Ci fib]
+18.6 +16.1 85 +20 +20 по сезону 998.1 986.4 +21.8 5
18 29.06 СЗ 3 50 км {гроза, ливн. осадки} 8/3 600 м
[Cb calv Ci fib]
+15.7 +15.1 96 +15 +15 по сезону 998.9 987.0

 

Местоположение метеостанции Тюмень (Тюменская область, Россия): широта 57.12 долгота 65.43 высота над уровнем моря 102 м.

В архиве по умолчанию представлена погода в Тюмени за последнюю неделю. Архивные данные за месяц целиком и за предыдущие месяцы, начиная с января 2011 года, Вы можете получить, выбрав интересующий диапазон дат из раскрывающегося списка и нажав кнопку "Ввод!".

Внимание! Время в таблицах - всемирное. Для получения местного времени необходимо прибавить поправку, которая в Tjumen` равна 5 ч.

Ветер - указаны скорость ветра в м/с - средняя за 10 мин, порывы в срок и между сроками (в фигурных скобках) и направление, откуда дует ветер: С - северный, СВ - северо-восточный, В - восточный, ЮВ - юго-восточный, Ю - южный, ЮЗ - юго-западный, З - западный, СЗ - северо-западный.
Видимость - горизонтальная дальность видимости в метрах или километрах. При видимости от 1 до 10 км при отсутствии осадков обычно наблюдается дымка, при ухудшении видимости до 1 км и менее - туман. В сухую погоду видимость может ухудшаться дымом, пылью или мглою.
Явления - указаны атмосферные явления, наблюдавшиеся в срок или в последний час перед сроком; фигурными скобками обозначены явления, наблюдавшиеся между сроками (за 1-3 часа до срока); квадратными скобками обозначены град или гололедные отложения с указанием их диаметра в мм.
Облачность - указаны через наклонную черту общая и нижняя облачность в баллах и высота нижней границы облаков в метрах; квадратными скобками обозначены формы облаков: Ci - перистые, Cs - перисто-слоистые, Cc - перисто-кучевые, Ac - высококучевые, As - высокослоистые, Sc - слоисто-кучевые, Ns - слоисто-дождевые, Cu - кучевые, Cb - кучево-дождевые. Подробнее классификацию облаков см. в Атласе облаков (PDF).
T - Температура воздуха - температура, измеренная на высоте 2 м над землей.
Td - Температура точки росы - температура, при понижении до которой содержащийся в воздухе водяной пар достигнет насыщения.
f - Относительная влажность воздуха - влажноcть воздуха, измеренная на высоте 2 м над землей.
Te - Эффективная температура - температура, которую ощущает одетый по сезону человек в тени. Характеристика душности погоды. При расчете учитывается влияние влажности воздуха и скорости ветра на теплоощущения человека.
Tes - Эффективная температура на солнце - температура, которую ощущает человек, с поправкой на солнечный нагрев. Характеристика знойности погоды. Зависит от высоты солнца над горизонтом, облачности и скорости ветра. Ночью, в пасмурную погоду, а также при ветре 12 м/с и более поправка равна нулю.
P - Атмосферное давление - приведенное к уровню моря атмосферное давление.
Po - Атмосферное давление - измеренное на уровне метеостанции атмосферное давление.
Tmin - Минимальная температура - минимум температуры воздуха на высоте 2 м над землей.
Tmax - Максимальная температура - максимум температуры воздуха на высоте 2 м над землей.
R - Количество осадков - Количество выпавших осадков, мм. При наведении курсора мыши на число - период времени, за который выпало указанное количество осадков.
S - Снежный покров - Высота снежного покрова, см. При наведении курсора мыши на число - состояние снежного покрова и степень покрытия местности в баллах.